Location: Oso Ridge
(35.0450°N, 108.0864°W)
Time: 15:41:22
(UTC-06:00)

Amateur Radio Satellites - All Passes

Search period start: 21 August 2017 15:11
Search period end: 22 August 2017 15:11
Location: Oso Ridge, 35.0450°N, 108.0864°W

Satellite Date Start Highest point End Downlink Frequencies (MHz)
Time Altitude Azimuth
DX 1 21 Aug 15:25:29 15:29:09 27° 290° (WNW) 15:32:46 434.975-435.025
MOZHAYETS 4 21 Aug 15:25:37 15:28:08 14° 93° (E) 15:30:38
AO-7 21 Aug 15:41:02 15:49:23 76° 70° (ENE) 15:57:44 .
BEESAT 21 Aug 15:46:35 15:50:45 30° 97° (E) 15:54:54 436.000
RS-15 21 Aug 15:48:36 15:54:58 15° 346° (NNW) 16:01:17 29.354- 29.394
Tancredo 1 21 Aug 15:48:54 15:51:25 26° 36° (NE) 15:53:54 437.200
ITAMSAT 1 21 Aug 15:55:27 16:00:39 78° 75° (ENE) 16:05:52 435.822/435.867
Gurwin Techsat 1B 21 Aug 15:58:14 15:59:00 10° 269° (W) 15:59:47 435.225
SRMSAT 21 Aug 16:17:49 16:21:32 17° 185° (S) 16:25:14 437.500
ITUPSAT 1 21 Aug 16:20:57 16:25:44 71° 103° (ESE) 16:30:30 437.325
BEESAT 2 21 Aug 16:35:53 16:38:31 17° 251° (WSW) 16:41:07 435.950
AO-85 21 Aug 16:37:04 16:38:21 11° 251° (WSW) 16:39:40 145.980
DOVE 4 21 Aug 16:50:27 16:54:14 20° 68° (ENE) 16:57:58 437.250
MOZHAYETS 4 21 Aug 17:01:03 17:05:28 45° 287° (WNW) 17:09:52
YUBILEINY 21 Aug 17:03:40 17:12:22 64° 279° (W) 17:21:04 435.215
KKS-1 21 Aug 17:08:07 17:10:32 14° 94° (E) 17:12:55 437.445
ISS 21 Aug 17:09:34 17:12:43 46° 39° (NE) 17:15:52 437.550
nSIGHT-1 21 Aug 17:16:54 17:20:07 59° 41° (NE) 17:23:17 .
CUBESAT XI-V 21 Aug 17:22:46 17:27:24 56° 100° (E) 17:32:01 437.345
Tancredo 1 21 Aug 17:24:21 17:26:28 19° 230° (SW) 17:28:33 437.200
BEESAT 21 Aug 17:24:32 17:28:20 24° 292° (WNW) 17:32:08 436.000
XW-2C 21 Aug 17:36:07 17:37:52 13° 68° (ENE) 17:39:37 145.795 - 145.815
AO-7 21 Aug 17:37:05 17:42:44 20° 266° (W) 17:48:27 .
STARS 21 Aug 17:44:23 17:46:45 14° 94° (E) 17:49:05 437.465
XW-2F 21 Aug 17:46:50 17:49:15 17° 69° (ENE) 17:51:40 145.980 - 146.000
ITUPSAT 1 21 Aug 18:01:42 18:02:55 11° 297° (WNW) 18:04:06 437.325
RS-15 21 Aug 18:07:00 18:14:51 19° 25° (NNE) 18:22:28 29.354- 29.394
SRMSAT 21 Aug 18:08:22 18:09:55 11° 194° (SSW) 18:11:29 437.500
KAITUO 1B 21 Aug 18:09:48 18:12:53 25° 72° (ENE) 18:15:58 145.475/437.950
CUTE-I 21 Aug 18:10:30 18:15:25 38° 71° (ENE) 18:20:20 437.470
HO-68 21 Aug 18:20:01 18:25:11 22° 61° (ENE) 18:30:21 435.675
DOVE 4 21 Aug 18:26:29 18:31:32 44° 262° (W) 18:36:31 437.250
CUTE 1.7 + AOD 2 21 Aug 18:29:24 18:29:56 10° 65° (ENE) 18:30:30 437.475
LilacSat-2 21 Aug 18:34:33 18:38:19 86° 75° (ENE) 18:42:07 437.200
XW-2D 21 Aug 18:37:40 18:41:25 89° 286° (WNW) 18:45:12 145.860 - 145.880
NUDT-PHONESAT 21 Aug 18:40:37 18:44:13 66° 77° (ENE) 18:47:53 437.300
KKS-1 21 Aug 18:43:03 18:47:13 42° 288° (WNW) 18:51:22 437.445
ISS 21 Aug 18:47:18 18:48:52 13° 233° (SW) 18:50:27 437.550
XW-2B 21 Aug 18:48:47 18:52:30 65° 260° (W) 18:56:15 145.730 - 145.750
CUBESAT XI-V 21 Aug 19:02:05 19:04:14 13° 295° (WNW) 19:06:23 437.345
XW-2C 21 Aug 19:08:16 19:11:41 34° 262° (W) 19:15:09 145.795 - 145.815
SEEDS 21 Aug 19:12:39 19:15:48 21° 70° (ENE) 19:18:58 437.485
STARS 21 Aug 19:19:08 19:23:13 40° 288° (WNW) 19:27:17 437.465
XW-2F 21 Aug 19:20:01 19:23:08 25° 264° (W) 19:26:18 145.980 - 146.000
XW-2A 21 Aug 19:29:19 19:31:57 22° 72° (ENE) 19:34:34 145.665 - 145.685
KAITUO 1B 21 Aug 19:44:30 19:46:51 16° 266° (W) 19:49:13 145.475/437.950
CUTE-I 21 Aug 19:51:21 19:55:31 23° 265° (W) 19:59:41 437.470
STRAND 1 21 Aug 19:54:34 19:58:53 27° 96° (E) 20:03:10 437.568
AAUSAT CUBESAT 2 21 Aug 19:54:53 19:58:26 28° 72° (ENE) 20:02:01 437.432
O/OREOS (USA 219) 21 Aug 19:56:39 20:01:12 68° 69° (ENE) 20:05:44 437.305
CUTE 1.7 + AOD 2 21 Aug 20:01:03 20:05:12 58° 260° (W) 20:09:24 437.475
HO-68 21 Aug 20:05:11 20:12:16 65° 257° (WSW) 20:19:23 435.675
UWE-3 21 Aug 20:12:42 20:16:46 49° 75° (ENE) 20:20:47 435.000/436.395/437.385
RS-15 21 Aug 20:19:07 20:30:55 56° 54° (NE) 20:42:02 29.354- 29.394
Oscar 11 21 Aug 20:19:45 20:22:55 20° 69° (ENE) 20:26:06 .
CUBEBUG 2 21 Aug 20:21:48 20:26:06 67° 260° (W) 20:30:17 437.445
SEEDS 21 Aug 20:47:46 20:51:17 26° 264° (W) 20:54:52 437.485
ZACube-1 21 Aug 20:50:09 20:54:17 74° 78° (ENE) 20:58:25 437.345
XW-2A 21 Aug 21:02:47 21:04:37 14° 266° (W) 21:06:28 145.665 - 145.685
AO-73 21 Aug 21:10:47 21:14:54 69° 259° (W) 21:19:01 145.935
EO-88 21 Aug 21:21:12 21:22:04 11° 67° (ENE) 21:22:57 145.990 - 145.960
AAUSAT CUBESAT 2 21 Aug 21:30:53 21:33:51 19° 266° (W) 21:36:50 437.432
STRAND 1 21 Aug 21:33:36 21:37:58 29° 291° (WNW) 21:42:19 437.568
FO-29 21 Aug 21:36:57 21:40:48 20° 93° (E) 21:44:31 435.910
UWE-3 21 Aug 21:52:43 21:53:26 10° 268° (W) 21:54:09 435.000/436.395/437.385
Oscar 11 21 Aug 21:55:08 21:58:50 28° 263° (W) 22:02:34 .
SO-50 21 Aug 21:58:46 22:00:23 12° 108° (ESE) 22:02:01 436.795
Max Valier Satellite 21 Aug 22:00:04 22:03:34 48° 75° (ENE) 22:07:06 145.860
PCSat 21 Aug 22:24:30 22:29:38 46° 110° (ESE) 22:34:48 145.827
TIGRISAT 21 Aug 22:25:13 22:28:41 23° 96° (E) 22:32:11 435.000
DELFI C3 21 Aug 22:25:53 22:29:47 52° 261° (W) 22:33:42 145.870
RS-15 21 Aug 22:32:20 22:42:48 39° 254° (WSW) 22:52:49 29.354- 29.394
LO-87 21 Aug 22:46:18 22:48:30 16° 70° (ENE) 22:50:41 145.935 - 145.965
EO-88 21 Aug 22:51:57 22:55:20 38° 261° (W) 22:58:45 145.990 - 145.960
ESTCUBE 1 21 Aug 23:05:31 23:08:55 22° 69° (ENE) 23:12:21 437.505/2401.250
PRISM 21 Aug 23:12:13 23:16:17 59° 100° (E) 23:20:19 437.425
FO-29 21 Aug 23:21:05 23:26:07 39° 290° (WNW) 23:30:54 435.910
UNISAT 6 21 Aug 23:26:21 23:30:37 58° 285° (WNW) 23:34:57 437.425
SO-50 21 Aug 23:35:52 23:40:19 58° 302° (WNW) 23:44:46 436.795
TIGRISAT 22 Aug 00:01:44 00:05:16 25° 289° (WNW) 00:08:53 435.000
M-CUBED/EXP-1 PRIME 22 Aug 00:01:56 00:04:56 19° 98° (E) 00:07:46 437.505
QB50P2 22 Aug 00:05:39 00:08:22 17° 94° (E) 00:11:04 145.880/145.840
EO-79 22 Aug 00:06:12 00:08:37 15° 94° (E) 00:11:04 145.935-145.965
PCSat 22 Aug 00:09:00 00:13:13 23° 307° (NW) 00:17:27 145.827
NO-84 22 Aug 00:14:36 00:16:37 16° 126° (SE) 00:18:34 435.350 FM
LO-87 22 Aug 00:18:41 00:21:41 25° 263° (W) 00:24:41 145.935 - 145.965
DUCHIFAT 1 22 Aug 00:33:56 00:37:25 25° 97° (E) 00:40:53 145.980
AIST 2D 22 Aug 00:41:25 00:44:56 58° 283° (WNW) 00:48:25 435.315
ESTCUBE 1 22 Aug 00:41:34 00:45:30 30° 263° (W) 00:49:29 437.505/2401.250
SPROUT 22 Aug 00:42:00 00:46:12 62° 76° (ENE) 00:50:24 437.525
VELOX 1 22 Aug 00:42:46 00:47:04 50° 74° (ENE) 00:51:24 145.980
DX 1 22 Aug 00:43:11 00:45:21 14° 66° (ENE) 00:47:32 434.975-435.025
50 SAT 22 Aug 00:55:46 00:58:20 20° 71° (ENE) 01:00:55 437.505
NANOSAT C BR1 22 Aug 01:19:02 01:23:14 75° 283° (WNW) 01:27:24 145.865
POLYITAN 1 22 Aug 01:24:54 01:29:02 56° 285° (WNW) 01:33:09 437.675
M-CUBED/EXP-1 PRIME 22 Aug 01:35:38 01:39:22 29° 294° (WNW) 01:42:50 437.505
QB50P2 22 Aug 01:40:25 01:44:11 33° 288° (WNW) 01:47:57 145.880/145.840
EO-79 22 Aug 01:40:37 01:44:28 36° 287° (WNW) 01:48:18 145.935-145.965
NO-84 22 Aug 01:51:23 01:53:51 23° 319° (NW) 01:56:14 435.350 FM
UKube-1 22 Aug 01:52:43 01:56:56 55° 74° (ENE) 02:01:11 .
BUGSAT 1 22 Aug 02:04:16 02:08:18 82° 103° (ESE) 02:12:20 437.445
DUCHIFAT 1 22 Aug 02:09:44 02:12:55 21° 290° (WNW) 02:16:07 145.980
DX 1 22 Aug 02:16:53 02:21:05 47° 260° (W) 02:25:20 434.975-435.025
VELOX 1 22 Aug 02:22:01 02:23:45 12° 268° (W) 02:25:28 145.980
50 SAT 22 Aug 02:28:38 02:30:54 17° 265° (W) 02:33:10 437.505
Gurwin Techsat 1B 22 Aug 02:33:02 02:38:00 39° 99° (E) 02:42:56 435.225
Oscar 19 22 Aug 02:49:16 02:54:30 89° 285° (WNW) 02:59:42 437.125/150
BEESAT 22 Aug 02:50:03 02:53:52 24° 69° (ENE) 02:57:41 436.000
YUBILEINY 22 Aug 03:17:54 03:26:26 56° 79° (E) 03:34:54 435.215
ITUPSAT 1 22 Aug 03:24:17 03:28:56 56° 74° (ENE) 03:33:35 437.325
UKube-1 22 Aug 03:32:34 03:33:14 10° 268° (W) 03:33:53 .
AO-7 22 Aug 03:47:13 03:54:16 30° 97° (E) 04:01:14 .
MOZHAYETS 4 22 Aug 03:59:08 04:03:39 71° 258° (WSW) 04:08:13
ITAMSAT 1 22 Aug 04:11:54 04:16:37 35° 98° (E) 04:21:18 435.822/435.867
Gurwin Techsat 1B 22 Aug 04:13:36 04:17:39 23° 293° (WNW) 04:21:41 435.225
CUBESAT XI-V 22 Aug 04:22:43 04:26:58 37° 72° (ENE) 04:31:16 437.345
BEESAT 22 Aug 04:27:22 04:31:28 29° 263° (W) 04:35:35 436.000
BEESAT 3 22 Aug 04:28:38 04:31:59 27° 112° (ESE) 04:35:23 437.485
BEESAT 2 22 Aug 04:47:22 04:49:02 12° 108° (ESE) 04:50:42 435.950
ITUPSAT 1 22 Aug 05:05:09 05:07:02 12° 268° (W) 05:08:55 437.325
AO-85 22 Aug 05:05:57 05:09:42 41° 115° (ESE) 05:13:23 145.980
YUBILEINY 22 Aug 05:15:44 05:22:36 27° 276° (W) 05:29:28 435.215
KKS-1 22 Aug 05:37:10 05:41:36 70° 257° (WSW) 05:46:05 437.445
AO-7 22 Aug 05:39:14 05:47:14 54° 293° (WNW) 05:55:11 .
ITAMSAT 1 22 Aug 05:51:46 05:55:51 24° 293° (WNW) 05:59:55 435.822/435.867
CUBESAT XI-V 22 Aug 06:01:16 06:04:25 18° 266° (W) 06:07:35 437.345
BEESAT 3 22 Aug 06:06:20 06:09:30 22° 307° (NW) 06:12:42 437.485
STARS 22 Aug 06:11:46 06:16:09 72° 258° (WSW) 06:20:33 437.465
LilacSat-2 22 Aug 06:12:52 06:14:17 12° 93° (E) 06:15:42 437.200
XW-2D 22 Aug 06:15:09 06:16:40 12° 93° (E) 06:18:11 145.860 - 145.880
BEESAT 2 22 Aug 06:22:30 06:26:19 44° 302° (WNW) 06:30:12 435.950
XW-2B 22 Aug 06:25:27 06:27:51 16° 94° (E) 06:30:15 145.730 - 145.750
DOVE 4 22 Aug 06:29:03 06:33:30 68° 101° (E) 06:37:42 437.250
CUTE-I 22 Aug 06:31:32 06:35:18 19° 94° (E) 06:39:03 437.470
XW-2C 22 Aug 06:43:47 06:47:08 28° 97° (E) 06:50:28 145.795 - 145.815
AO-85 22 Aug 06:48:05 06:50:15 14° 311° (NW) 06:52:25 145.980
XW-2F 22 Aug 06:54:33 06:58:07 36° 98° (E) 07:01:40 145.980 - 146.000
STRAND 1 22 Aug 07:07:21 07:11:41 29° 69° (ENE) 07:16:01 437.568
PCSat 22 Aug 07:16:15 07:20:12 20° 52° (NE) 07:24:07 145.827
KAITUO 1B 22 Aug 07:17:04 07:20:49 58° 100° (E) 07:24:33 145.475/437.950
HO-68 22 Aug 07:36:58 07:43:06 30° 97° (E) 07:49:11 435.675
LilacSat-2 22 Aug 07:45:04 07:48:40 38° 286° (WNW) 07:52:17 437.200
XW-2D 22 Aug 07:47:24 07:50:58 37° 286° (WNW) 07:54:30 145.860 - 145.880
NUDT-PHONESAT 22 Aug 07:47:36 07:51:15 53° 285° (WNW) 07:54:55 437.300
CUTE 1.7 + AOD 2 22 Aug 07:49:17 07:53:03 29° 97° (E) 07:56:47 437.475
XW-2B 22 Aug 07:58:43 08:02:01 28° 288° (WNW) 08:05:20 145.730 - 145.750
UWE-3 22 Aug 08:06:44 08:08:44 13° 93° (E) 08:10:44 435.000/436.395/437.385
SO-50 22 Aug 08:09:58 08:14:24 48° 57° (ENE) 08:18:52 436.795
CUTE-I 22 Aug 08:10:29 08:15:29 43° 289° (WNW) 08:20:28 437.470
Tancredo 1 22 Aug 08:12:43 08:15:21 32° 132° (SE) 08:17:59 437.200
CUBEBUG 2 22 Aug 08:15:39 08:19:25 30° 98° (E) 08:23:13 437.445
XW-2C 22 Aug 08:18:37 08:21:04 16° 291° (WNW) 08:23:31 145.795 - 145.815
XW-2A 22 Aug 08:25:53 08:29:03 36° 99° (E) 08:32:14 145.665 - 145.685
NO-84 22 Aug 08:26:16 08:29:01 29° 43° (NE) 08:31:57 435.350 FM
O/OREOS (USA 219) 22 Aug 08:29:53 08:31:11 11° 98° (E) 08:32:28 437.305
XW-2F 22 Aug 08:30:07 08:31:52 13° 292° (WNW) 08:33:37 145.980 - 146.000
SEEDS 22 Aug 08:33:48 08:38:01 62° 100° (E) 08:42:13 437.485
ZACube-1 22 Aug 08:42:09 08:45:10 18° 95° (E) 08:48:13 437.345
STRAND 1 22 Aug 08:46:23 08:50:45 28° 263° (W) 08:55:07 437.568
PCSat 22 Aug 08:58:37 09:03:53 53° 248° (WSW) 09:09:06 145.827
AO-73 22 Aug 09:01:48 09:05:31 27° 97° (E) 09:09:17 145.935
AAUSAT CUBESAT 2 22 Aug 09:14:37 09:18:48 84° 99° (E) 09:22:58 437.432
TIGRISAT 22 Aug 09:22:04 09:24:18 14° 67° (ENE) 09:26:31 435.000
HO-68 22 Aug 09:24:11 09:30:53 45° 292° (WNW) 09:37:36 435.675
CUTE 1.7 + AOD 2 22 Aug 09:25:33 09:28:39 20° 291° (WNW) 09:31:44 437.475
FO-29 22 Aug 09:26:48 09:34:17 60° 73° (ENE) 09:41:07 435.910
UWE-3 22 Aug 09:41:15 09:45:19 44° 286° (WNW) 09:49:29 435.000/436.395/437.385
Oscar 11 22 Aug 09:44:41 09:49:01 65° 101° (ESE) 09:53:20 .
ISS 22 Aug 09:46:49 09:50:07 89° 330° (NNW) 09:53:24 437.550
Tancredo 1 22 Aug 09:48:29 09:50:35 18° 328° (NNW) 09:52:40 437.200
SO-50 22 Aug 09:51:51 09:54:27 15° 251° (WSW) 09:57:04 436.795
CUBEBUG 2 22 Aug 09:52:48 09:55:48 19° 290° (WNW) 09:58:51 437.445
nSIGHT-1 22 Aug 09:53:10 09:56:25 69° 319° (NW) 09:59:40 .
PRISM 22 Aug 09:58:21 10:01:50 27° 71° (ENE) 10:05:21 437.425
NO-84 22 Aug 10:04:03 10:06:16 17° 234° (SW) 10:08:36 435.350 FM
O/OREOS (USA 219) 22 Aug 10:05:41 10:10:01 52° 292° (WNW) 10:14:25 437.305
DELFI C3 22 Aug 10:06:27 10:09:38 23° 96° (E) 10:12:46 145.870
ZACube-1 22 Aug 10:17:37 10:21:26 32° 288° (WNW) 10:25:21 437.345
UNISAT 6 22 Aug 10:21:35 10:25:56 79° 75° (ENE) 10:30:13 437.425
EO-88 22 Aug 10:24:06 10:26:53 20° 96° (E) 10:29:40 145.990 - 145.960
JUGNU 22 Aug 10:25:51 10:29:04 15° 170° (S) 10:32:15 437.505
RS-15 22 Aug 10:36:56 10:48:20 50° 108° (ESE) 10:59:55 29.354- 29.394
AO-73 22 Aug 10:38:16 10:41:34 22° 290° (WNW) 10:44:55 145.935
M-CUBED/EXP-1 PRIME 22 Aug 10:44:06 10:47:05 17° 62° (ENE) 10:50:06 437.505
TIGRISAT 22 Aug 10:56:29 11:00:36 42° 261° (W) 11:04:41 435.000
Max Valier Satellite 22 Aug 11:06:28 11:10:10 72° 283° (WNW) 11:13:52 145.860
AIST 2D 22 Aug 11:12:41 11:15:35 25° 73° (ENE) 11:18:32 435.315
FO-29 22 Aug 11:13:38 11:19:26 24° 265° (W) 11:24:57 435.910
DUCHIFAT 1 22 Aug 11:24:01 11:25:53 13° 67° (ENE) 11:27:46 145.980
ISS 22 Aug 11:25:33 11:26:59 12° 334° (NNW) 11:28:27 437.550
nSIGHT-1 22 Aug 11:32:27 11:33:17 11° 336° (NNW) 11:34:08 .
PRISM 22 Aug 11:33:58 11:37:03 20° 264° (W) 11:40:09 437.425
DELFI C3 22 Aug 11:41:14 11:44:14 21° 290° (WNW) 11:47:13 145.870
LO-87 22 Aug 11:48:18 11:51:22 27° 97° (E) 11:54:26 145.935 - 145.965
EO-88 22 Aug 11:57:41 12:00:24 20° 289° (WNW) 12:03:06 145.990 - 145.960
NANOSAT C BR1 22 Aug 12:07:31 12:11:33 49° 74° (ENE) 12:15:35 145.865
JUGNU 22 Aug 12:13:26 12:17:21 18° 180° (S) 12:21:14 437.505
POLYITAN 1 22 Aug 12:13:41 12:17:51 67° 76° (ENE) 12:22:01 437.675
M-CUBED/EXP-1 PRIME 22 Aug 12:16:48 12:21:03 44° 257° (WSW) 12:25:29 437.505
QB50P2 22 Aug 12:28:55 12:33:07 70° 259° (W) 12:37:18 145.880/145.840
EO-79 22 Aug 12:28:58 12:33:11 78° 259° (W) 12:37:23 145.935-145.965
Oscar 19 22 Aug 12:29:12 12:29:19 10° 61° (ENE) 12:29:25 437.125/150
SRMSAT 22 Aug 12:29:48 12:31:41 11° 166° (SSE) 12:33:35 437.500
SPROUT 22 Aug 12:32:29 12:34:32 13° 93° (E) 12:36:34 437.525
ESTCUBE 1 22 Aug 12:36:26 12:40:59 72° 102° (ESE) 12:45:29 437.505/2401.250
VELOX 1 22 Aug 12:38:02 12:39:44 12° 92° (E) 12:41:26 145.980
AIST 2D 22 Aug 12:47:00 12:48:47 13° 266° (W) 12:50:35 435.315
RS-15 22 Aug 12:49:08 13:00:49 49° 309° (NW) 13:12:42 29.354- 29.394
BUGSAT 1 22 Aug 12:50:41 12:54:22 34° 73° (ENE) 12:58:03 437.445
DUCHIFAT 1 22 Aug 12:57:09 13:01:08 44° 261° (W) 13:05:08 145.980
LO-87 22 Aug 13:22:44 13:24:31 13° 291° (WNW) 13:26:18 145.935 - 145.965
AO-85 22 Aug 13:39:59 13:42:57 17° 51° (NE) 13:46:01 145.980
UKube-1 22 Aug 13:45:10 13:46:35 11° 93° (E) 13:47:59 .
NANOSAT C BR1 22 Aug 13:46:29 13:47:29 11° 268° (W) 13:48:29 145.865
Gurwin Techsat 1B 22 Aug 13:50:48 13:55:51 46° 72° (ENE) 14:00:55 435.225
50 SAT 22 Aug 13:52:08 13:55:07 29° 98° (E) 13:58:04 437.505
JUGNU 22 Aug 14:02:36 14:05:37 14° 191° (S) 14:08:37 437.505
Oscar 19 22 Aug 14:02:42 14:07:50 86° 254° (WSW) 14:13:02 437.125/150
SPROUT 22 Aug 14:06:35 14:10:35 41° 287° (WNW) 14:14:33 437.525
DX 1 22 Aug 14:08:13 14:12:14 36° 99° (E) 14:16:12 434.975-435.025
VELOX 1 22 Aug 14:12:10 14:16:25 49° 286° (WNW) 14:20:38 145.980
SRMSAT 22 Aug 14:16:20 14:20:05 17° 176° (S) 14:23:51 437.500
BEESAT 3 22 Aug 14:24:58 14:28:57 75° 60° (ENE) 14:32:50 437.485
BUGSAT 1 22 Aug 14:27:28 14:29:48 15° 266° (W) 14:32:07 437.445
Tancredo 1 22 Aug 14:39:07 14:39:55 11° 27° (NNE) 14:40:43 437.200
AO-7 22 Aug 14:42:50 14:49:59 33° 61° (ENE) 14:57:07 .
BEESAT 2 22 Aug 14:43:01 14:46:46 35° 56° (NE) 14:50:27 435.950
